Skip Page Navigation
NASA JPL Caltech
NASA Logo - Jet Propulsion Laboratory + View the NASA Portal
+ Near-Earth Object (NEO) Program
Search JPL
JPL Home Earth Solar System Stars & Galaxies Technology
JPL Solar System Dynamics
BODIES ORBITS EPHEMERIDES TOOLS PHYSICAL DATA DISCOVERY FAQ SITE MAP
JPL Small-Body Database Browser
Search: [ help ]  
523 Ada (1904 ND)
Classification: Main-belt Asteroid          SPK-ID: 2000523
Ephemeris | Orbit Diagram | Orbital Elements | Physical Parameters | Discovery Circumstances | Close-Approach Data ]

[ show orbit diagram ]
Orbital Elements at Epoch 2457000.5 (2014-Dec-09.0) TDB
Reference: JPL 8 (heliocentric ecliptic J2000)
 Element Value Uncertainty (1-sigma)   Units 
e .1744000963245327 4.4042e-08  
a 2.969949618639636 1.6819e-08 AU
q 2.451990119069874 1.3195e-07 AU
i 4.295386060387571 5.1893e-06 deg
node 260.8499816548792 7.2027e-05 deg
peri 189.3102950222491 7.3178e-05 deg
M 276.2164527927628 1.3487e-05 deg
tp 2457435.589189599627
(2016-Feb-17.08918960)
7.0652e-05 JED
period 1869.485280546057
5.12
1.588e-05
4.348e-08
d
yr
n .1925663730793578 1.6357e-09 deg/d
Q 3.487909118209397 1.9752e-08 AU
  Orbit Determination Parameters
   # obs. used (total)      1281  
   data-arc span      40918 days (112.03 yr)  
   first obs. used      1902-10-25  
   last obs. used      2014-11-04  
   planetary ephem.      DE431  
   SB-pert. ephem.      SB431-BIG16  
   condition code      0  
   fit RMS      .57507  
   data source      ORB  
   producer      Otto Matic  
   solution date      2014-Nov-10 12:42:57  

Additional Information
 Earth MOID = 1.46836 AU 
 T_jup = 3.236 
[ show covariance matrix ]

Ephemeris | Orbit Diagram | Orbital Elements | Physical Parameters | Discovery Circumstances | Close-Approach Data ]

Physical Parameter Table
Parameter Symbol Value Units Sigma Reference Notes
absolute magnitude H 9.8 mag n/a MPO250196  
diameter diameter 31.89 km 1.5 IRAS-A-FPA-3-RDR-IMPS-V6.0 IRAS observations used: 7
rotation period rot_per 10.03 h n/a Asteroid Lightcurve DataBase (Rev. 2014-Mar-01) Published Reference List:
[Georgilas, S.A.; Wetterer, C.J. (1996) Minor Planet Bul. 23, 41-42.]
[Behrend, R. (2004) Observatoire de Geneve web site, http://obswww.unige.ch/~behrend/page_cou.html]
[LeCrone, C.; Mills, G.; Ditteon, R. (2005) Minor Planet Bul. 32, 62-64.]
geometric albedo albedo 0.2512   0.026 IRAS-A-FPA-3-RDR-IMPS-V6.0 IRAS observations used: 7
SMASSII spectral type spec_B X   n/a EAR-A-5-DDR-TAXONOMY-V4.0 based on a high-resolution spectrum by Xu et al. (1995) or Bus and Binzel (2002)

523 Ada (1904 ND)          Discovered 1904-Jan-27 by Dugan, R. S. at Heidelberg (024)
Reference: DISCOVERY.DBLast Updated: 2003-08-29

[ show close-approach data ]
Alternate Designations
 1904 ND = 1937 NB = 1964 XN = A902 UD 
Ephemeris | Orbit Diagram | Orbital Elements | Physical Parameters | Discovery Circumstances | Close-Approach Data ]
ABOUT SSD CREDITS/AWARDS PRIVACY/COPYRIGHT GLOSSARY LINKS
FirstGov 2014-Nov-27 01:36 UT
(server date/time)  
NASA Home Page
Site Manager:   Donald K. Yeomans
Webmaster  Alan B. Chamberlin